Date String (YYYY-MM-DD hh:mm:ss) UTC,Instrument flags,Ambient pressure (hPa),Sample flow (lpm),Bypass flow (lpm),Sample temperature (°C),Ambient temperature (°C),ASC tube jacket temperature (°C),LED temperature (°C),Box temperature (°C),Sample RH (%),Span deviation,Mass concentration (μg/m³),Mass concentration (μg/m³),Mass concentration (μg/m³)
DateTimeUTC,F1_M11,P_M11,Q1_M11,Q2_M11,T1_M11,T2_M11,T3_M11,T4_M11,T5_M11,U1_M11,ZSPAN_M11,X0_M11,X2_M11,X1_M11
2022-06-02 19:00:00,,0827.4,5.00,0.00,29.6,28.8,00.0,38.4,31.5,22.1,-001.6,0012.93,0009.54,0009.07
2022-06-02 19:01:00,,0827.4,5.01,0.00,29.6,28.8,00.0,38.4,31.5,22.1,-001.8,0013.00,0009.50,0009.05
2022-06-02 19:02:00,,0827.4,5.00,0.00,29.6,28.8,00.0,38.5,31.5,22.4,-001.5,0012.99,0009.36,0008.91
2022-06-02 19:03:00,,0827.4,5.00,0.00,29.7,28.9,00.0,38.5,31.5,22.8,-001.3,0013.00,0009.29,0008.84
2022-06-02 19:04:00,,0827.4,5.00,0.00,29.7,28.9,00.0,38.5,31.6,23.0,-001.1,0013.05,0009.34,0008.88
2022-06-02 19:05:00,,0827.3,5.01,0.00,29.7,28.9,00.0,38.5,31.6,24.1,-001.3,0013.19,0009.39,0008.91
2022-06-02 19:06:00,,0827.3,4.99,0.00,29.7,28.9,00.0,38.5,31.6,24.1,-001.5,0013.94,0009.46,0008.98
2022-06-02 19:07:00,,0827.3,5.00,0.00,29.7,28.9,00.0,38.5,31.6,24.0,-001.6,0014.03,0009.58,0009.11
2022-06-02 19:08:00,,0827.2,5.01,0.00,29.7,28.9,00.0,38.5,31.6,23.3,-001.4,0014.12,0009.71,0009.24
2022-06-02 19:09:00,,0827.2,5.01,0.00,29.7,28.9,00.0,38.5,31.6,23.3,-001.3,0014.07,0009.82,0009.33
2022-06-02 19:10:00,,0827.4,5.00,0.00,29.7,28.9,00.0,38.6,31.6,23.9,-001.2,0014.14,0009.89,0009.39
2022-06-02 19:11:00,,0827.5,4.99,0.00,29.7,28.9,00.0,38.6,31.6,22.4,-001.1,0014.04,0009.90,0009.44
2022-06-02 19:12:00,,0827.6,5.00,0.00,29.7,28.9,00.0,38.6,31.6,21.7,-001.1,0013.90,0009.95,0009.49
2022-06-02 19:13:00,,0827.7,5.00,0.00,29.8,28.9,00.0,38.6,31.6,22.8,-001.2,0013.57,0009.98,0009.54
2022-06-02 19:14:00,,0827.5,4.99,0.00,29.8,28.9,00.0,38.6,31.6,22.5,-000.9,0014.13,0009.97,0009.54
2022-06-02 19:15:00,,0827.5,5.00,0.00,29.8,28.9,00.0,38.6,31.7,22.4,-000.9,0014.57,0009.94,0009.49
2022-06-02 19:16:00,,0827.3,5.01,0.00,29.8,29.0,00.0,38.6,31.7,22.5,-000.8,0014.49,0009.92,0009.45
2022-06-02 19:17:00,,0827.2,5.00,0.00,29.8,29.0,00.0,38.6,31.7,23.1,-000.9,0013.88,0009.85,0009.36
2022-06-02 19:18:00,,0827.5,4.99,0.00,29.8,29.0,00.0,38.6,31.7,23.5,-000.8,0014.13,0009.74,0009.21
2022-06-02 19:19:00,,0827.3,5.01,0.00,29.8,29.0,00.0,38.7,31.7,24.3,-001.1,0014.34,0009.62,0009.10
2022-06-02 19:20:00,,0827.4,5.01,0.00,29.8,29.0,00.0,38.7,31.7,23.9,-001.1,0014.14,0009.55,0009.06
2022-06-02 19:21:00,,0827.1,4.99,0.00,29.9,29.0,00.0,38.7,31.8,23.4,-001.3,0014.42,0009.60,0009.10
2022-06-02 19:22:00,,0827.2,4.99,0.00,29.9,29.0,00.0,38.7,31.8,23.2,-001.4,0014.60,0009.62,0009.11
2022-06-02 19:23:00,,0827.3,5.01,0.00,29.9,29.0,00.0,38.7,31.8,22.8,-001.4,0014.85,0009.57,0009.09
2022-06-02 19:24:00,,0827.4,5.00,0.00,29.9,29.0,00.0,38.7,31.7,22.8,-001.7,0015.04,0009.57,0009.10
2022-06-02 19:25:00,,0827.5,5.00,0.00,29.9,29.0,00.0,38.7,31.7,22.0,-001.9,0014.41,0009.54,0009.05
2022-06-02 19:26:00,,0827.6,4.99,0.00,29.9,29.0,00.0,38.7,31.8,21.5,-002.1,0013.76,0009.43,0008.98
2022-06-02 19:27:00,,0827.4,5.01,0.00,29.9,29.0,00.0,38.8,31.7,22.0,-002.0,0013.85,0009.31,0008.90
2022-06-02 19:28:00,,0827.3,5.01,0.00,29.9,29.0,00.0,38.8,31.8,21.8,-001.7,0013.85,0009.27,0008.89
2022-06-02 19:29:00,,0827.5,5.00,0.00,29.9,29.1,00.0,38.8,31.8,21.5,-001.8,0013.55,0009.32,0008.96
2022-06-02 19:30:00,,0827.5,5.00,0.00,29.9,29.1,00.0,38.8,31.8,22.6,-001.7,0013.24,0009.38,0009.00
2022-06-02 19:31:00,,0827.5,5.01,0.00,29.9,29.1,00.0,38.8,31.8,22.9,-001.6,0013.24,0009.36,0008.97
2022-06-02 19:32:00,,0827.3,5.00,0.00,30.0,29.1,00.0,38.8,31.8,23.4,-001.6,0012.97,0009.37,0008.98
2022-06-02 19:33:00,,0827.1,4.98,0.00,30.0,29.1,00.0,38.8,31.8,22.9,-001.8,0013.05,0009.50,0009.12
2022-06-02 19:34:00,,0827.1,5.00,0.00,30.0,29.1,00.0,38.8,31.9,23.2,-001.9,0013.04,0009.70,0009.30
2022-06-02 19:35:00,,0827.2,5.00,0.00,30.0,29.1,00.0,38.8,31.9,23.1,-001.9,0013.09,0009.84,0009.42
2022-06-02 19:36:00,,0827.2,5.00,0.00,30.0,29.2,00.0,38.8,31.9,23.2,-001.9,0013.27,0009.98,0009.54
2022-06-02 19:37:00,,0827.1,5.01,0.00,30.0,29.2,00.0,38.9,31.9,22.8,-002.1,0013.49,0010.17,0009.72
2022-06-02 19:38:00,,0827.2,4.99,0.00,30.0,29.2,00.0,38.9,31.9,23.2,-002.2,0013.45,0010.33,0009.87
2022-06-02 19:39:00,,0827.1,5.00,0.00,30.0,29.2,00.0,38.9,31.9,22.5,-002.3,0014.40,0010.47,0009.99
2022-06-02 19:40:00,,0827.1,4.99,0.00,30.0,29.2,00.0,38.9,31.9,22.7,-002.2,0014.67,0010.55,0010.06
2022-06-02 19:41:00,,0827.1,5.00,0.00,30.0,29.2,00.0,38.9,31.9,24.0,-002.3,0014.67,0010.61,0010.14
2022-06-02 19:42:00,,0827.1,5.00,0.00,30.1,29.2,00.0,38.9,31.9,22.9,-002.3,0015.10,0010.78,0010.33
2022-06-02 19:43:00,,0827.1,5.01,0.00,30.1,29.2,00.0,38.9,31.9,23.5,-002.3,0015.46,0010.93,0010.47
2022-06-02 19:44:00,,0827.2,4.99,0.00,30.1,29.3,00.0,38.9,32.0,23.0,-001.9,0015.52,0011.01,0010.53
2022-06-02 19:45:00,,0827.1,4.99,0.00,30.1,29.3,00.0,38.9,32.0,22.8,-001.6,0015.56,0011.09,0010.62
2022-06-02 19:46:00,,0827.2,4.99,0.00,30.1,29.3,00.0,39.0,32.0,22.7,-001.4,0015.68,0011.22,0010.77
2022-06-02 19:47:00,,0827.1,5.00,0.00,30.1,29.1,00.0,38.9,31.9,22.9,-001.5,0016.22,0011.33,0010.91
2022-06-02 19:48:00,,0827.1,5.01,0.00,30.1,28.2,00.0,38.9,31.7,22.9,-001.4,0016.38,0011.44,0011.01
2022-06-02 19:49:00,,0827.1,5.01,0.00,30.0,27.6,00.0,38.8,31.5,22.9,-001.7,0016.59,0011.63,0011.20
2022-06-02 19:50:00,,0827.0,4.99,0.00,29.9,27.5,00.0,38.8,31.4,23.1,-001.7,0015.97,0011.90,0011.47
2022-06-02 19:51:00,,0827.0,5.00,0.00,29.8,27.6,00.0,38.8,31.4,23.3,-001.8,0016.10,0012.22,0011.76
2022-06-02 19:52:00,,0827.0,5.01,0.00,29.8,27.7,00.0,38.7,31.4,23.3,-001.6,0016.52,0012.53,0012.08
2022-06-02 19:53:00,,0827.0,4.99,0.00,29.7,27.9,00.0,38.7,31.4,24.1,-001.7,0016.88,0012.71,0012.24
2022-06-02 19:54:00,,0827.0,5.01,0.00,29.7,28.0,00.0,38.7,31.5,23.8,-001.5,0017.35,0012.83,0012.37
2022-06-02 19:55:00,,0827.0,5.01,0.00,29.7,28.2,00.0,38.7,31.5,23.8,-001.6,0017.44,0012.94,0012.49
2022-06-02 19:56:00,,0827.0,5.00,0.00,29.7,28.3,00.0,38.7,31.5,23.3,-001.8,0017.57,0013.10,0012.61
2022-06-02 19:57:00,,0827.0,5.00,0.00,29.7,28.4,00.0,38.7,31.5,24.0,-001.7,0017.62,0013.19,0012.71
2022-06-02 19:58:00,,0826.9,5.00,0.00,29.7,28.5,00.0,38.7,31.6,24.9,-001.7,0017.67,0013.27,0012.78
2022-06-02 19:59:00,,0827.0,5.00,0.00,29.8,28.6,00.0,38.7,31.6,23.9,-001.5,0017.80,0013.36,0012.86
